SCP
0 0 0 0 0 0 0 0 0 0 0 0 0 0 0 0 0 0 0 0 0 0 0 1 1 1 2 2 1 1 1 1 0 0 0 0 0 0 0 0 0 0 0
-0 -0 -0 -0 -0 0 0 0 0 0 0 0 0 0 0 0 0 0 0 0 0 0 0 1 1 1 1 2 1 1 1 0 0 0 0 0 0 0 0 0 0 0 0
-0 -0 -0 -0 -0 -0 0 0 0 0 0 0 0 0 0 0 0 0 0 0 0 0 0 1 1 1 1 1 0 0 0 0 0 0 0 0 0 0 0 0 0 0 0
-0 -0 -0 -0 0 -0 -0 -0 0 0 0 0 0 0 0 0 0 0 0 0 0 0 0 1 1 0 0 0 0 0 1 0 0 0 0 0 0 0 0 0 0 0 0
0 0 0 0 0 0 0 0 0 0 0 0 0 0 0 0 0 0 0 0 0 0 0 0 0 0 0 0 0 0 0 0 0 0 0 0 0 0 0 0 0 0 0
0 0 0 0 -0 -0 0 0 0 0 0 0 0 -0 0 0 0 0 0 0 0 0 0 0 0 0 0 0 0 0 0 0 0 -0 -0 0 0 0 0 0 0 0 0
-0 -0 -0 -0 0 -0 -0 0 0 0 0 0 -0 0 0 0 0 0 0 0 0 0 0 0 0 0 0 0 0 0 0 0 0 0 0 0 0 0 0 0 0 0 0
-0 0 0 -0 -0 -0 -0 0 0 -0 -0 -0 0 0 -0 0 0 0 0 0 0 0 0 0 0 0 0 0 0 0 0 0 0 0 0 0 0 0 0 0 0 0 0
0 -0 0 -0 -0 -0 -0 -0 -0 -0 -0 0 0 0 0 0 0 0 0 0 0 0 0 0 0 0 0 0 0 0 0 0 0 0 0 0 0 0 0 0 0 0 0
0 0 0 -0 -0 -0 -0 -0 -0 0 0 0 0 0 0 0 0 0 0 0 0 0 0 0 0 0 0 0 0 0 0 0 0 0 0 0 0 0 0 0 0 0 0
0 0 0 0 -0 -0 -0 -0 0 0 0 0 0 0 0 0 0 0 0 0 0 0 0 0 0 0 0 0 0 0 -0 0 0 0 0 0 0 0 0 0 0 0 0
0 0 0 0 0 0 0 0 0 0 0 0 0 0 0 0 0 0 0 0 0 0 0 0 0 0 0 0 0 0 0 0 0 0 0 0 0 0 0 0 0 0 0
0 0 0 0 0 0 0 0 0 0 0 0 0 0 0 0 0 0 0 0 0 0 0 0 0 0 0 0 0 0 0 0 0 0 0 0 0 0 0 0 0 0 0
0 0 0 0 0 0 0 0 0 0 0 0 0 0 0 0 0 0 0 0 0 0 0 0 0 0 0 0 0 0 0 0 0 0 0 0 0 0 0 0 0 0 0
0 0 0 0 0 0 0 0 0 0 0 0 0 0 0 0 0 0 0 0 0 0 0 0 0 0 0 0 0 0 0 0 0 0 0 0 0 0 0 0 0 0 0
0 0 0 0 0 0 0 0 0 0 0 0 0 0 0 0 0 0 0 0 0 0 0 0 0 0 0 0 0 0 0 0 0 0 0 0 0 0 0 0 0 0 0
0 0 0 0 0 0 0 0 0 0 0 0 0 0 0 0 0 0 0 0 0 0 0 0 0 0 0 0 0 0 0 0 0 0 0 0 0 0 0 0 0 0 0
0 0 0 0 0 0 0 0 0 0 0 0 0 0 0 0 0 0 0 0 0 0 0 0 0 0 0 0 0 0 0 0 0 0 0 0 0 0 0 0 0 0 0
0 0 0 0 0 0 0 0 0 0 0 0 0 0 0 0 0 0 0 0 0 0 0 0 0 0 0 0 0 0 0 0 0 0 0 0 0 0 0 0 0 0 0
0 0 0 0 0 0 0 0 0 0 0 0 0 0 0 0 0 0 0 0 0 0 0 0 0 0 0 0 0 0 0 0 0 0 0 0 0 0 0 0 0 0 0
0 0 0 0 0 0 0 0 0 0 0 0 0 0 0 0 0 0 0 0 0 0 0 0 0 0 0 0 0 0 0 0 0 0 0 0 0 0 0 0 0 0 0
0 0 0 0 0 0 0 -0 0 0 0 0 0 0 0 0 0 0 0 0 0 0 0 0 0 0 0 0 0 0 0 0 0 0 0 0 -0 0 0 0 0 0 0
0 0 0 0 0 0 0 -0 -0 0 0 0 0 0 0 0 0 0 0 0 0 0 0 0 0 0 0 0 0 0 0 0 0 -0 -0 -0 -0 -0 -0 0 -0 -0 -0
0 0 0 0 0 0 -0 -0 -0 0 0 0 0 0 0 0 0 0 0 0 -0 -0 -0 0 0 0 0 -0 -0 0 0 0 -0 -0 0 0 0 -0 -0 0 -0 0 0
0 0 0 0 0 0 -0 0 0 -0 -0 0 0 0 0 0 0 0 0 0 -0 -0 -0 0 0 0 0 0 0 0 0 0 0 0 -0 0 0 0 0 -0 -0 0 0
0 0 -0 -0 -0 0 -0 -0 0 -0 -0 -0 0 -0 -0 -0 0 0 -0 -0 -0 0 0 0 0 0 0 0 0 0 0 0 0 0 0 0 0 0 0 0 -0 0 0
Wind_Speed_500mb
55 55 54 55 52 50 50 50 47 45 44 42 42 43 44 46 48 51 53 52 53 54 54 56 53 51 57 64 63 58 66 55 50 51 47 48 47 44 42 37 34 30 29
62 63 63 62 59 59 56 53 52 51 52 50 48 47 49 53 54 55 57 62 60 56 55 60 60 57 66 72 67 71 57 58 62 54 48 49 51 50 45 41 37 33 33
64 66 65 63 61 56 54 52 51 50 54 53 54 52 49 57 61 59 61 61 62 59 57 64 65 65 68 69 68 58 65 71 81 68 56 47 49 51 47 46 42 39 39
40 37 46 60 61 63 63 62 54 50 53 52 51 53 50 64 60 60 61 49 51 50 52 62 71 62 59 65 67 70 67 68 67 72 73 56 39 47 51 52 46 45 40
61 39 41 64 73 81 66 62 65 33 56 58 53 59 60 63 54 49 46 46 50 51 55 64 64 64 66 73 74 65 64 62 56 55 60 56 33 45 46 50 49 44 40
70 92 63 65 85 78 73 60 52 39 62 66 55 63 68 60 46 45 40 48 52 51 57 59 64 68 67 63 49 47 39 40 29 26 24 25 33 37 40 39 38 36 38
37 57 55 55 48 62 76 71 63 50 66 61 63 72 70 52 43 46 39 36 42 46 45 48 51 48 43 36 32 22 26 20 22 21 23 28 32 36 40 42 43 40 39
35 43 43 54 61 63 57 31 49 52 58 53 52 46 29 40 37 25 29 32 26 28 30 32 34 28 32 33 20 22 23 28 28 28 24 23 19 17 21 25 26 26 25
42 57 55 59 60 61 37 41 57 53 66 62 40 24 14 18 14 19 19 16 14 16 16 16 16 18 18 20 22 26 24 30 30 33 33 27 22 21 22 25 26 24 26
31 39 45 45 49 51 64 70 75 67 47 40 35 37 43 43 23 10 17 21 21 17 18 17 16 17 26 27 26 30 32 35 37 35 36 37 34 32 32 34 34 34 34
33 39 44 51 55 59 60 62 51 40 36 37 36 37 38 44 41 37 18 16 13 8 12 20 22 26 29 28 28 31 38 42 41 42 43 44 45 52 49 48 43 44 45
35 37 37 41 49 53 53 48 47 42 42 42 40 38 39 40 40 35 27 20 17 9 7 11 15 28 31 32 37 37 45 53 52 50 48 53 52 52 59 60 57 55 53
40 34 39 41 38 38 33 30 32 35 37 33 32 34 31 31 19 24 22 18 17 14 13 14 14 16 18 22 32 39 49 59 64 66 62 62 60 57 56 57 55 58 57
46 43 42 44 40 34 25 20 17 18 19 20 20 24 22 19 17 20 22 24 18 15 16 16 16 22 23 25 23 27 33 35 39 51 61 67 66 68 67 66 61 58 60
39 42 45 46 37 28 16 12 10 8 10 11 15 25 27 26 25 21 21 21 18 11 20 25 26 28 27 27 26 24 26 29 33 39 45 49 49 53 59 63 67 77 74
38 39 39 44 43 30 23 13 9 11 12 16 19 20 20 19 18 15 14 14 17 19 19 24 30 32 36 33 35 36 41 44 44 47 50 53 56 58 63 67 71 74 71
41 36 31 33 41 42 29 24 18 18 18 19 17 14 15 16 17 16 16 17 17 19 22 25 27 32 37 41 47 50 54 57 58 58 61 64 67 69 70 71 72 71 70
33 30 26 29 31 30 32 32 30 28 25 23 22 22 20 15 12 8 8 11 13 16 18 22 29 34 37 39 40 38 39 41 42 42 44 47 51 57 61 67 70 67 65
19 19 17 17 19 23 23 17 17 22 29 31 26 19 16 8 6 11 18 18 20 20 21 22 23 20 17 19 20 20 23 23 23 24 24 28 31 36 33 26 30 33 34
27 26 26 25 21 14 16 16 18 20 21 24 16 15 17 18 16 16 20 17 13 8 5 7 9 7 6 9 14 18 15 22 20 17 16 14 11 6 7 13 18 21 24
41 36 29 26 19 16 15 11 9 5 5 4 12 15 15 12 15 16 10 5 7 7 7 4 3 9 12 7 9 14 22 23 5 3 2 12 1 2 4 8 5 6 15
47 40 35 32 26 22 18 17 13 9 10 13 10 5 9 12 14 6 9 13 15 15 15 19 15 13 14 15 16 17 19 18 8 6 5 7 8 7 8 3 5 6 14
42 34 29 22 20 21 16 14 15 14 12 12 11 13 15 9 11 12 14 18 19 22 22 18 13 10 11 9 11 14 19 19 13 6 14 11 9 8 10 8 6 12 14
43 40 38 35 26 26 20 19 17 14 13 14 16 14 18 19 24 26 24 22 20 19 16 13 15 9 7 8 12 16 20 15 20 18 12 11 14 9 7 8 14 24 29
42 44 47 48 45 41 36 32 25 20 17 20 20 25 25 28 28 26 22 19 16 17 16 14 11 15 11 13 15 17 19 20 22 19 8 8 20 9 9 16 28 36 25
42 41 42 43 43 43 43 43 38 25 24 23 24 30 29 30 28 24 21 21 25 25 23 17 14 16 16 7 11 12 12 12 13 9 14 13 15 21 10 15 27 25 22
Wind_Direction_500mb
264 262 264 266 269 272 273 271 266 262 264 268 273 275 277 279 280 280 278 276 270 266 263 261 258 262 247 241 246 260 270 248 256 266 259 256 255 256 247 246 248 250 238
277 278 276 277 277 277 276 272 266 267 271 276 275 277 281 282 283 281 278 275 274 269 262 261 255 261 249 251 245 273 256 259 259 254 247 247 249 247 246 245 246 251 245
287 282 281 277 277 276 274 275 266 258 261 269 277 278 285 289 284 280 274 268 271 272 262 259 254 263 254 251 264 260 264 262 255 251 243 239 239 236 239 241 242 245 245
301 302 305 286 273 269 272 270 268 269 273 274 269 274 285 296 281 275 282 280 281 276 271 255 257 258 256 260 259 265 261 238 226 237 240 230 230 233 234 238 239 241 246
337 312 308 322 292 274 271 281 276 265 267 269 275 271 290 301 280 277 286 285 281 279 273 268 265 261 262 261 268 273 265 253 243 241 230 224 230 232 233 235 234 233 241
282 282 285 279 271 271 266 273 271 263 277 274 274 282 289 298 286 286 290 288 286 274 266 265 267 265 264 265 266 265 253 248 222 204 214 218 218 224 230 230 235 244 248
246 258 257 255 292 255 264 283 270 269 268 270 271 277 288 291 278 282 277 278 279 273 269 263 265 266 250 236 242 236 216 205 206 192 199 214 215 218 222 228 239 245 250
258 277 280 274 285 282 285 289 243 266 270 275 269 273 276 286 288 271 265 272 275 268 264 263 259 247 232 228 216 216 218 214 215 197 196 185 176 193 202 208 221 229 227
265 275 280 278 266 270 239 269 288 275 281 283 263 244 244 242 250 262 271 251 262 267 253 249 250 241 213 199 214 222 226 214 215 212 208 206 213 208 203 207 218 232 239
302 289 273 277 276 254 256 278 285 286 276 263 258 255 247 250 266 242 232 221 251 267 248 245 238 219 211 210 217 231 240 225 227 228 225 222 224 230 230 228 230 235 238
319 311 289 281 282 276 275 276 276 276 253 251 248 250 255 242 249 248 220 229 229 230 250 246 236 231 227 225 231 229 242 241 244 246 243 239 238 239 237 238 241 247 249
316 321 319 300 287 281 276 270 261 264 264 257 254 254 248 248 235 227 224 225 205 212 226 228 225 227 227 225 231 236 241 246 249 253 258 258 256 252 247 244 242 245 242
318 318 324 329 315 299 285 280 266 259 259 249 238 236 233 233 219 212 200 207 204 196 215 232 234 238 238 237 242 244 245 249 247 243 242 243 247 254 257 255 256 248 252
321 315 316 321 320 310 301 288 279 264 248 222 209 203 198 207 191 187 190 198 191 199 227 245 258 257 252 251 244 240 241 247 250 250 247 247 249 254 257 256 259 254 253
319 317 315 311 316 316 308 286 266 241 226 206 185 175 179 178 181 190 193 199 205 227 242 245 246 250 247 243 240 240 243 248 252 259 262 262 259 256 257 257 252 251 250
303 311 312 307 308 294 283 256 213 195 188 187 182 181 179 180 184 189 198 216 231 242 244 237 235 236 239 247 255 254 260 264 264 263 259 256 253 252 251 250 252 257 250
299 294 291 294 291 288 275 264 243 221 207 205 202 198 189 182 189 194 204 216 226 236 238 242 243 245 250 256 265 267 268 267 265 262 258 256 255 254 253 253 254 254 254
306 308 294 288 288 282 274 265 252 230 213 202 193 187 175 164 179 196 231 248 251 250 256 254 258 260 270 272 271 272 272 273 274 273 273 270 266 261 259 259 260 264 265
356 352 10 353 337 318 291 242 227 234 187 152 125 118 113 90 12 327 307 291 286 285 280 275 270 273 274 277 283 285 285 284 286 287 295 296 289 275 261 255 255 257 255
51 50 51 53 54 67 71 69 89 89 66 65 46 7 353 343 321 308 298 302 305 309 309 294 285 276 273 292 307 306 311 295 288 295 301 306 329 338 256 253 255 255 259
50 50 49 58 54 61 52 17 358 321 277 309 352 344 340 328 334 338 332 11 44 30 37 43 54 36 7 352 5 24 5 8 341 347 103 70 147 36 293 266 295 270 274
41 34 29 22 15 34 26 21 7 16 32 46 37 18 3 336 337 48 72 64 61 57 59 66 51 41 40 58 35 15 6 13 39 47 204 61 40 24 336 291 311 307 277
24 25 28 26 45 54 33 41 56 62 57 41 15 353 343 38 78 84 80 82 71 58 49 41 31 32 53 57 34 31 43 29 24 50 116 76 31 360 352 36 6 328 329
29 37 39 48 54 54 36 31 22 15 13 9 2 48 76 80 80 87 92 76 61 36 23 28 32 26 39 76 64 29 39 72 76 75 74 31 13 354 14 2 336 330 328
41 47 51 54 54 54 45 36 25 22 27 38 65 87 84 86 87 83 73 54 33 36 30 29 42 45 55 89 69 65 50 67 76 68 50 359 17 7 320 332 345 344 344
50 53 51 54 54 52 49 43 42 43 50 55 70 87 87 85 81 70 56 55 44 41 43 52 59 54 55 91 79 66 47 31 33 47 21 20 15 1 358 344 342 360 14
Wind_Speed_850mb
55 55 54 55 52 50 50 50 47 45 44 42 42 43 44 46 48 51 53 52 53 54 54 56 53 51 57 64 63 58 66 55 50 51 47 48 47 44 42 37 34 30 29
62 63 63 62 59 59 56 53 52 51 52 50 48 47 49 53 54 55 57 62 60 56 55 60 60 57 66 72 67 71 57 58 62 54 48 49 51 50 45 41 37 33 33
64 66 65 63 61 56 54 52 51 50 54 53 54 52 49 57 61 59 61 61 62 59 57 64 65 65 68 69 68 58 65 71 81 68 56 47 49 51 47 46 42 39 39
40 37 46 60 61 63 63 62 54 50 53 52 51 53 50 64 60 60 61 49 51 50 52 62 71 62 59 65 67 70 67 68 67 72 73 56 39 47 51 52 46 45 40
61 39 41 64 73 81 66 62 65 33 56 58 53 59 60 63 54 49 46 46 50 51 55 64 64 64 66 73 74 65 64 62 56 55 60 56 33 45 46 50 49 44 40
70 92 63 65 85 78 73 60 52 39 62 66 55 63 68 60 46 45 40 48 52 51 57 59 64 68 67 63 49 47 39 40 29 26 24 25 33 37 40 39 38 36 38
37 57 55 55 48 62 76 71 63 50 66 61 63 72 70 52 43 46 39 36 42 46 45 48 51 48 43 36 32 22 26 20 22 21 23 28 32 36 40 42 43 40 39
35 43 43 54 61 63 57 31 49 52 58 53 52 46 29 40 37 25 29 32 26 28 30 32 34 28 32 33 20 22 23 28 28 28 24 23 19 17 21 25 26 26 25
42 57 55 59 60 61 37 41 57 53 66 62 40 24 14 18 14 19 19 16 14 16 16 16 16 18 18 20 22 26 24 30 30 33 33 27 22 21 22 25 26 24 26
31 39 45 45 49 51 64 70 75 67 47 40 35 37 43 43 23 10 17 21 21 17 18 17 16 17 26 27 26 30 32 35 37 35 36 37 34 32 32 34 34 34 34
33 39 44 51 55 59 60 62 51 40 36 37 36 37 38 44 41 37 18 16 13 8 12 20 22 26 29 28 28 31 38 42 41 42 43 44 45 52 49 48 43 44 45
35 37 37 41 49 53 53 48 47 42 42 42 40 38 39 40 40 35 27 20 17 9 7 11 15 28 31 32 37 37 45 53 52 50 48 53 52 52 59 60 57 55 53
40 34 39 41 38 38 33 30 32 35 37 33 32 34 31 31 19 24 22 18 17 14 13 14 14 16 18 22 32 39 49 59 64 66 62 62 60 57 56 57 55 58 57
46 43 42 44 40 34 25 20 17 18 19 20 20 24 22 19 17 20 22 24 18 15 16 16 16 22 23 25 23 27 33 35 39 51 61 67 66 68 67 66 61 58 60
39 42 45 46 37 28 16 12 10 8 10 11 15 25 27 26 25 21 21 21 18 11 20 25 26 28 27 27 26 24 26 29 33 39 45 49 49 53 59 63 67 77 74
38 39 39 44 43 30 23 13 9 11 12 16 19 20 20 19 18 15 14 14 17 19 19 24 30 32 36 33 35 36 41 44 44 47 50 53 56 58 63 67 71 74 71
41 36 31 33 41 42 29 24 18 18 18 19 17 14 15 16 17 16 16 17 17 19 22 25 27 32 37 41 47 50 54 57 58 58 61 64 67 69 70 71 72 71 70
33 30 26 29 31 30 32 32 30 28 25 23 22 22 20 15 12 8 8 11 13 16 18 22 29 34 37 39 40 38 39 41 42 42 44 47 51 57 61 67 70 67 65
19 19 17 17 19 23 23 17 17 22 29 31 26 19 16 8 6 11 18 18 20 20 21 22 23 20 17 19 20 20 23 23 23 24 24 28 31 36 33 26 30 33 34
27 26 26 25 21 14 16 16 18 20 21 24 16 15 17 18 16 16 20 17 13 8 5 7 9 7 6 9 14 18 15 22 20 17 16 14 11 6 7 13 18 21 24
41 36 29 26 19 16 15 11 9 5 5 4 12 15 15 12 15 16 10 5 7 7 7 4 3 9 12 7 9 14 22 23 5 3 2 12 1 2 4 8 5 6 15
47 40 35 32 26 22 18 17 13 9 10 13 10 5 9 12 14 6 9 13 15 15 15 19 15 13 14 15 16 17 19 18 8 6 5 7 8 7 8 3 5 6 14
42 34 29 22 20 21 16 14 15 14 12 12 11 13 15 9 11 12 14 18 19 22 22 18 13 10 11 9 11 14 19 19 13 6 14 11 9 8 10 8 6 12 14
43 40 38 35 26 26 20 19 17 14 13 14 16 14 18 19 24 26 24 22 20 19 16 13 15 9 7 8 12 16 20 15 20 18 12 11 14 9 7 8 14 24 29
42 44 47 48 45 41 36 32 25 20 17 20 20 25 25 28 28 26 22 19 16 17 16 14 11 15 11 13 15 17 19 20 22 19 8 8 20 9 9 16 28 36 25
42 41 42 43 43 43 43 43 38 25 24 23 24 30 29 30 28 24 21 21 25 25 23 17 14 16 16 7 11 12 12 12 13 9 14 13 15 21 10 15 27 25 22
Wind_Direction_850mb
264 262 264 266 269 272 273 271 266 262 264 268 273 275 277 279 280 280 278 276 270 266 263 261 258 262 247 241 246 260 270 248 256 266 259 256 255 256 247 246 248 250 238
277 278 276 277 277 277 276 272 266 267 271 276 275 277 281 282 283 281 278 275 274 269 262 261 255 261 249 251 245 273 256 259 259 254 247 247 249 247 246 245 246 251 245
287 282 281 277 277 276 274 275 266 258 261 269 277 278 285 289 284 280 274 268 271 272 262 259 254 263 254 251 264 260 264 262 255 251 243 239 239 236 239 241 242 245 245
301 302 305 286 273 269 272 270 268 269 273 274 269 274 285 296 281 275 282 280 281 276 271 255 257 258 256 260 259 265 261 238 226 237 240 230 230 233 234 238 239 241 246
337 312 308 322 292 274 271 281 276 265 267 269 275 271 290 301 280 277 286 285 281 279 273 268 265 261 262 261 268 273 265 253 243 241 230 224 230 232 233 235 234 233 241
282 282 285 279 271 271 266 273 271 263 277 274 274 282 289 298 286 286 290 288 286 274 266 265 267 265 264 265 266 265 253 248 222 204 214 218 218 224 230 230 235 244 248
246 258 257 255 292 255 264 283 270 269 268 270 271 277 288 291 278 282 277 278 279 273 269 263 265 266 250 236 242 236 216 205 206 192 199 214 215 218 222 228 239 245 250
258 277 280 274 285 282 285 289 243 266 270 275 269 273 276 286 288 271 265 272 275 268 264 263 259 247 232 228 216 216 218 214 215 197 196 185 176 193 202 208 221 229 227
265 275 280 278 266 270 239 269 288 275 281 283 263 244 244 242 250 262 271 251 262 267 253 249 250 241 213 199 214 222 226 214 215 212 208 206 213 208 203 207 218 232 239
302 289 273 277 276 254 256 278 285 286 276 263 258 255 247 250 266 242 232 221 251 267 248 245 238 219 211 210 217 231 240 225 227 228 225 222 224 230 230 228 230 235 238
319 311 289 281 282 276 275 276 276 276 253 251 248 250 255 242 249 248 220 229 229 230 250 246 236 231 227 225 231 229 242 241 244 246 243 239 238 239 237 238 241 247 249
316 321 319 300 287 281 276 270 261 264 264 257 254 254 248 248 235 227 224 225 205 212 226 228 225 227 227 225 231 236 241 246 249 253 258 258 256 252 247 244 242 245 242
318 318 324 329 315 299 285 280 266 259 259 249 238 236 233 233 219 212 200 207 204 196 215 232 234 238 238 237 242 244 245 249 247 243 242 243 247 254 257 255 256 248 252
321 315 316 321 320 310 301 288 279 264 248 222 209 203 198 207 191 187 190 198 191 199 227 245 258 257 252 251 244 240 241 247 250 250 247 247 249 254 257 256 259 254 253
319 317 315 311 316 316 308 286 266 241 226 206 185 175 179 178 181 190 193 199 205 227 242 245 246 250 247 243 240 240 243 248 252 259 262 262 259 256 257 257 252 251 250
303 311 312 307 308 294 283 256 213 195 188 187 182 181 179 180 184 189 198 216 231 242 244 237 235 236 239 247 255 254 260 264 264 263 259 256 253 252 251 250 252 257 250
299 294 291 294 291 288 275 264 243 221 207 205 202 198 189 182 189 194 204 216 226 236 238 242 243 245 250 256 265 267 268 267 265 262 258 256 255 254 253 253 254 254 254
306 308 294 288 288 282 274 265 252 230 213 202 193 187 175 164 179 196 231 248 251 250 256 254 258 260 270 272 271 272 272 273 274 273 273 270 266 261 259 259 260 264 265
356 352 10 353 337 318 291 242 227 234 187 152 125 118 113 90 12 327 307 291 286 285 280 275 270 273 274 277 283 285 285 284 286 287 295 296 289 275 261 255 255 257 255
51 50 51 53 54 67 71 69 89 89 66 65 46 7 353 343 321 308 298 302 305 309 309 294 285 276 273 292 307 306 311 295 288 295 301 306 329 338 256 253 255 255 259
50 50 49 58 54 61 52 17 358 321 277 309 352 344 340 328 334 338 332 11 44 30 37 43 54 36 7 352 5 24 5 8 341 347 103 70 147 36 293 266 295 270 274
41 34 29 22 15 34 26 21 7 16 32 46 37 18 3 336 337 48 72 64 61 57 59 66 51 41 40 58 35 15 6 13 39 47 204 61 40 24 336 291 311 307 277
24 25 28 26 45 54 33 41 56 62 57 41 15 353 343 38 78 84 80 82 71 58 49 41 31 32 53 57 34 31 43 29 24 50 116 76 31 360 352 36 6 328 329
29 37 39 48 54 54 36 31 22 15 13 9 2 48 76 80 80 87 92 76 61 36 23 28 32 26 39 76 64 29 39 72 76 75 74 31 13 354 14 2 336 330 328
41 47 51 54 54 54 45 36 25 22 27 38 65 87 84 86 87 83 73 54 33 36 30 29 42 45 55 89 69 65 50 67 76 68 50 359 17 7 320 332 345 344 344
50 53 51 54 54 52 49 43 42 43 50 55 70 87 87 85 81 70 56 55 44 41 43 52 59 54 55 91 79 66 47 31 33 47 21 20 15 1 358 344 342 360 14